GFSNE_700_spd_129.txt.gz
Wind_Speed
59 56 52 52 57 52 40 56 45 64 45 40 35 33 32 28 28 28 29 31 28 26 28 30 27 25 24 21 22 28 29 30 34 39 36 37 40 41
60 59 53 49 47 40 28 28 40 40 46 42 37 34 32 30 30 30 31 31 30 27 28 31 29 28 28 27 23 26 32 30 30 32 42 40 40 43
55 55 53 50 43 35 30 29 33 39 44 47 41 37 37 33 34 34 35 36 34 31 31 32 32 32 33 32 29 28 31 35 33 34 35 41 46 50
57 52 49 48 47 38 35 38 36 40 49 53 44 39 39 37 35 36 39 38 37 32 33 38 38 35 36 35 31 30 31 32 36 35 41 40 44 48
47 58 55 47 47 45 39 37 29 42 36 60 45 43 40 39 39 39 40 41 39 40 39 38 39 39 38 35 34 32 35 35 35 38 40 42 40 43
38 41 47 54 52 46 43 45 36 37 35 29 51 45 46 43 42 44 44 43 41 39 33 36 41 41 41 37 35 37 34 35 37 37 39 41 44 42
33 35 36 44 48 46 39 44 47 46 39 39 42 46 46 48 47 48 46 43 42 42 37 32 33 38 37 38 37 35 36 39 39 40 39 43 44 45
24 27 34 37 39 45 52 56 49 42 45 47 48 53 51 54 50 51 48 48 47 44 41 36 40 39 41 41 40 38 38 40 42 40 40 41 47 47
23 31 36 33 34 41 39 45 46 40 52 46 52 54 58 55 52 56 51 51 52 48 47 46 41 43 44 45 42 42 41 40 41 42 42 44 45 47
13 22 25 29 33 36 42 45 44 42 48 52 52 54 54 58 59 62 56 55 52 51 56 51 44 44 44 45 44 42 40 41 42 44 46 46 47 43
24 20 5 6 18 33 33 32 38 38 40 48 41 42 54 51 55 48 56 59 53 49 45 52 45 43 45 45 46 43 41 42 43 46 49 51 49 47
16 18 16 18 19 14 9 5 2 21 25 34 31 43 44 42 40 50 42 42 44 47 49 49 45 44 45 47 45 45 44 42 42 41 42 46 50 46
12 9 7 7 5 4 4 4 3 4 7 9 9 9 13 23 29 34 37 38 41 44 43 45 43 41 44 49 51 48 45 45 45 45 45 45 47 48
14 13 11 9 8 7 6 7 9 9 11 12 13 14 13 12 13 16 20 24 30 33 37 43 44 41 44 46 48 50 52 50 49 49 50 50 49 47
17 17 17 17 15 14 14 15 15 16 18 19 20 22 21 22 21 23 24 23 24 27 29 35 37 41 42 45 50 52 51 53 53 53 51 51 51 49
21 21 21 21 20 20 20 19 20 21 23 24 26 28 29 29 29 30 30 31 31 34 36 37 37 36 39 42 44 45 46 47 50 51 50 51 51 48
23 23 22 23 24 25 26 26 27 27 28 28 29 30 32 33 35 35 36 36 38 38 38 39 40 40 40 42 42 43 42 43 44 45 44 43 43 42
28 27 28 28 27 27 27 27 28 29 30 31 33 34 34 34 34 36 37 38 39 40 41 42 42 43 43 42 43 42 41 40 39 39 39 39 40 41
34 34 33 33 33 32 32 31 31 31 32 33 34 34 34 36 36 37 36 37 38 40 41 42 42 43 43 43 44 42 40 40 39 37 37 37 39 39
37 37 36 35 35 35 35 33 33 33 33 34 34 35 36 36 36 36 37 37 37 37 37 38 38 39 40 41 42 42 41 38 37 36 36 37 38 38
37 37 37 36 35 34 34 35 35 35 35 35 36 36 37 35 35 36 36 36 36 36 35 35 34 33 34 35 35 36 36 36 34 33 33 34 33 33
38 38 37 37 37 37 36 35 34 34 35 36 36 37 37 37 35 34 34 33 33 33 33 33 31 30 30 30 31 31 30 29 28 28 29 29 29 28
38 38 38 37 38 37 37 36 35 35 35 35 35 36 36 35 33 32 32 32 31 31 31 29 28 27 27 26 27 26 26 26 24 23 23 22 21 22

GFSNE_700_spd_132.txt.gz
Wind_Speed
47 50 48 47 46 46 55 53 50 53 38 38 49 47 39 37 34 37 36 36 33 35 35 33 30 30 29 27 25 22 21 27 35 39 33 33 35 37
48 50 49 54 49 51 47 43 45 46 40 34 37 51 42 37 35 38 35 34 33 35 36 35 32 31 29 29 27 26 23 24 29 35 39 33 35 40
49 51 52 53 52 54 51 47 44 36 30 24 24 29 56 42 37 38 38 37 37 37 38 35 34 31 32 31 31 31 28 27 29 34 35 33 34 36
43 48 52 50 48 47 47 50 44 41 39 28 23 20 42 42 42 42 41 38 40 39 40 38 37 33 31 34 34 34 34 31 31 34 37 38 36 38
36 39 41 47 49 46 47 46 47 39 37 35 30 31 35 42 51 48 44 40 41 41 40 42 40 38 34 36 36 36 35 34 33 34 36 37 38 38
33 33 36 37 41 47 46 43 39 37 38 32 34 40 32 37 51 64 53 44 44 45 41 42 42 42 40 40 40 42 37 36 36 38 37 39 40 41
16 25 32 33 31 35 42 47 47 39 37 40 36 35 44 42 50 58 53 45 46 46 47 45 45 43 41 39 38 43 41 40 38 38 38 37 40 42
12 21 24 28 29 31 33 38 40 39 39 39 37 40 41 42 43 59 59 51 48 49 51 49 47 46 44 43 41 41 40 40 41 41 41 40 41 43
13 16 17 20 26 31 33 34 37 41 44 45 44 44 46 45 47 54 48 55 52 55 54 52 50 51 49 48 42 40 43 45 45 44 44 45 44 42
21 6 8 15 19 23 29 33 33 38 41 39 43 43 44 50 53 55 57 57 58 57 57 56 54 54 54 53 49 49 47 48 49 48 47 47 48 46
23 25 27 24 10 3 10 12 20 27 32 36 40 45 42 50 53 48 51 55 57 55 59 62 58 56 57 58 54 53 51 49 49 49 49 48 48 48
14 12 11 10 12 16 16 16 10 5 14 12 19 22 30 36 47 46 54 53 56 63 62 70 57 57 55 57 54 51 54 49 49 49 49 50 50 49
16 15 13 11 10 10 9 9 7 10 8 8 8 8 5 7 12 20 32 35 39 44 47 52 51 55 51 52 53 53 54 48 49 50 49 48 49 50
18 16 14 13 13 13 13 13 14 15 15 14 14 14 15 15 14 14 17 15 16 20 25 30 35 40 41 43 45 48 49 49 46 50 52 51 50 50
23 23 23 21 20 19 18 18 18 19 19 19 20 20 21 21 22 23 23 26 25 25 25 25 26 28 33 36 40 43 47 47 50 51 55 55 55 57
26 25 25 25 25 26 27 27 26 25 24 25 24 24 23 24 25 27 28 29 31 32 33 33 35 35 36 37 39 40 44 45 48 51 51 55 56 57
25 25 26 26 26 27 27 28 29 29 30 30 30 30 30 30 29 29 29 30 33 35 36 40 41 39 38 39 40 40 40 41 42 46 50 52 53 53
30 30 30 30 30 30 29 29 30 30 31 31 33 34 34 33 33 33 34 34 33 34 35 36 38 41 45 44 44 42 41 41 42 42 43 44 45 45
32 32 32 32 32 32 32 32 31 31 32 33 33 34 35 36 37 37 36 36 36 36 36 37 37 38 38 40 44 43 43 43 43 42 42 42 41 41
34 35 35 34 34 34 34 33 33 33 33 33 34 35 35 36 36 37 39 39 38 37 36 37 37 36 36 37 37 38 40 38 38 39 39 40 40 38
36 36 35 35 35 36 36 37 36 35 35 35 35 36 36 36 36 37 37 38 39 39 36 35 35 34 34 34 34 33 33 34 34 33 34 34 34 34
37 37 37 37 37 37 37 37 37 37 36 36 36 36 36 36 36 37 37 36 35 35 34 34 34 33 32 31 30 30 29 29 29 28 29 30 31 29
36 37 38 38 39 40 40 40 39 38 37 37 37 36 36 36 36 36 35 35 34 33 32 29 29 30 29 28 27 26 26 25 25 24 24 25 25 25

GFSNE_700_spd_138.txt.gz
Wind_Speed
46 46 50 56 54 53 41 41 46 44 46 43 43 62 54 48 42 42 46 45 43 44 45 50 51 48 48 44 43 40 37 34 33 33 31 28 24 32
39 43 48 50 49 48 48 39 46 50 49 39 37 33 64 56 48 53 53 51 55 51 44 45 50 52 50 49 47 43 38 37 35 34 33 30 27 29
33 36 40 42 44 43 44 44 41 44 45 46 42 40 42 53 79 67 61 53 55 60 46 46 50 50 51 51 49 45 40 38 37 36 36 34 31 30
18 23 28 32 37 39 41 48 51 27 39 38 43 43 48 40 32 41 33 46 52 72 55 48 50 45 49 50 49 47 42 40 38 37 36 36 35 32
9 13 18 23 29 32 35 47 44 46 43 35 39 42 29 19 21 23 32 37 41 42 68 62 50 49 51 51 50 47 44 43 40 38 38 38 39 38
4 6 10 13 19 25 30 34 40 49 37 38 24 21 22 25 27 31 37 38 43 44 42 64 65 52 51 54 48 48 46 45 44 43 41 40 40 40
10 4 4 4 9 11 19 26 31 33 38 35 33 34 33 33 35 38 40 42 37 35 47 57 65 45 55 50 51 47 49 47 47 46 46 44 45 44
8 9 7 6 4 11 17 16 20 23 30 30 33 25 39 35 41 44 36 45 42 47 39 50 64 60 54 46 54 50 48 51 49 48 49 48 47 47
26 21 15 11 7 6 9 10 16 22 24 30 22 30 42 34 39 45 45 41 44 48 51 52 59 68 68 65 65 53 51 51 53 51 52 51 49 48
16 16 18 20 20 19 19 16 8 14 19 23 26 31 37 33 38 41 47 45 46 46 50 55 52 63 54 54 57 59 67 61 54 54 55 56 54 52
17 17 16 15 14 13 14 12 10 11 10 12 19 26 32 34 39 43 46 46 50 46 53 50 50 52 49 52 53 51 58 68 69 59 58 60 62 58
17 15 14 13 13 13 13 13 12 11 12 8 6 8 12 13 14 24 33 39 44 47 47 48 54 56 56 57 60 55 52 65 68 74 73 64 59 62
16 15 14 12 12 11 11 12 12 14 14 13 15 18 19 18 17 19 19 17 18 23 32 40 42 51 55 55 55 56 55 55 61 63 68 69 65 69
19 18 17 15 15 14 14 15 16 16 17 18 18 18 19 21 22 24 26 28 26 27 27 25 26 27 34 40 45 51 54 56 59 62 69 65 64 67
21 22 22 22 20 20 19 19 19 20 22 23 24 24 24 23 23 23 25 26 28 31 33 34 33 35 35 33 30 32 38 42 44 45 53 57 58 63
21 22 23 25 27 28 28 26 25 24 24 24 26 27 28 28 27 27 26 27 29 30 32 33 33 35 37 39 39 36 41 40 36 36 37 44 48 47
24 24 24 25 25 26 26 27 29 30 29 28 27 27 28 29 29 29 29 29 29 29 30 33 35 34 34 35 38 38 40 42 42 44 47 43 40 38
25 25 26 27 28 29 29 29 30 30 30 31 30 31 31 30 30 31 31 31 31 31 31 31 31 32 35 36 36 37 36 39 39 40 41 43 43 43
27 28 29 30 31 32 32 32 32 32 33 34 34 34 34 33 33 33 33 33 32 33 33 34 33 33 32 33 34 34 35 36 36 37 38 38 40 40
31 31 32 32 33 34 34 34 35 35 34 34 35 35 35 36 35 34 34 34 34 35 33 34 34 34 34 34 34 32 35 33 34 34 36 35 36 36
32 33 33 34 34 34 35 36 37 37 36 36 36 36 36 36 36 36 36 36 36 35 34 35 35 35 34 34 34 32 32 31 31 31 32 32 33 32
34 34 34 34 34 35 35 36 37 37 38 37 37 36 35 35 35 35 35 35 35 35 35 34 33 33 33 34 34 32 30 30 29 28 28 28 28 28
33 33 34 34 35 36 36 36 37 37 37 37 37 37 36 36 35 35 35 35 34 33 33 32 32 32 31 30 32 31 29 27 26 25 26 26 27 27

GFSNE_700_spd_141.txt.gz
Wind_Speed
46 47 48 49 50 54 56 55 53 46 50 42 48 44 47 49 50 54 58 65 59 63 45 46 49 51 49 48 47 46 47 42 40 40 36 35 34 31
35 40 41 45 48 51 54 56 49 53 51 43 40 44 42 39 45 46 52 59 63 71 53 48 45 45 48 50 52 48 47 48 44 44 44 39 36 34
13 21 29 36 42 48 51 51 47 45 50 41 39 45 41 41 47 48 52 63 51 66 59 44 45 41 41 43 48 50 50 51 48 41 47 41 40 37
3 6 12 19 26 32 37 39 45 45 45 48 23 36 42 42 42 42 31 59 71 69 55 41 45 45 43 47 46 48 48 52 50 46 48 46 42 40
4 4 5 9 14 19 26 32 38 39 44 47 40 36 28 39 38 38 37 46 53 58 68 61 52 53 55 59 53 50 48 50 51 50 48 46 44 41
5 3 3 5 7 11 17 26 28 36 42 47 46 47 37 25 38 40 47 49 38 34 34 55 48 44 47 55 66 57 49 50 49 53 49 47 45 44
16 12 7 4 3 5 6 13 20 27 35 33 37 37 37 46 23 19 30 30 40 30 33 31 36 43 53 52 56 64 52 50 53 57 50 48 47 48
24 19 13 10 6 5 6 8 12 15 17 18 22 32 45 49 37 25 28 20 28 29 31 36 36 41 48 47 52 62 67 65 59 61 52 49 49 50
18 22 21 21 21 13 4 3 5 10 14 16 16 20 21 26 35 36 36 35 39 35 43 36 36 49 50 46 44 54 64 63 51 46 55 52 52 51
19 18 16 14 12 13 15 15 13 11 6 9 15 18 22 25 24 28 29 36 45 42 45 51 44 45 52 39 37 39 48 69 62 56 55 53 54 53
21 21 20 18 16 15 13 11 9 8 10 12 12 10 11 17 24 28 29 32 34 36 42 47 48 49 49 50 55 52 50 52 54 57 64 63 66 58
19 19 18 18 19 19 18 16 15 14 14 12 10 12 14 16 17 17 17 19 21 26 32 37 44 49 50 51 54 56 55 53 49 56 58 50 53 62
16 15 15 15 14 14 15 16 16 17 17 16 17 17 18 20 23 25 26 28 27 26 24 27 28 30 37 45 48 52 51 51 56 55 57 57 52 56
17 17 16 16 16 16 16 16 16 17 18 20 21 21 22 23 24 26 28 30 30 32 33 34 33 31 31 30 32 33 38 41 45 52 57 57 54 58
19 20 20 20 20 21 23 24 25 24 23 23 24 25 26 27 28 29 29 31 31 32 33 34 35 35 38 38 37 36 34 36 34 35 40 45 49 53
19 20 20 20 21 23 24 25 26 27 28 31 31 31 30 30 31 31 31 32 33 33 35 35 36 36 35 37 39 40 40 40 41 40 37 38 36 36
23 23 24 24 25 26 27 27 27 27 27 29 30 33 35 34 33 33 34 34 34 35 35 34 35 37 38 38 38 39 39 40 40 40 41 41 43 41
24 25 26 28 29 30 30 32 32 32 32 31 31 32 33 35 37 36 36 36 36 35 36 37 37 36 35 37 40 39 39 39 38 38 40 41 39 43
26 27 28 29 31 32 33 34 35 35 35 35 35 35 35 35 36 37 38 37 36 36 37 37 38 39 38 36 35 36 39 39 40 38 37 39 40 39
28 29 30 31 32 34 34 35 36 37 37 37 37 37 37 37 37 36 37 37 36 35 34 35 36 37 37 39 37 30 36 40 38 37 36 37 37 36
29 31 32 32 33 34 35 35 36 37 38 38 38 38 38 38 38 38 38 37 37 36 35 33 33 34 35 36 36 35 32 33 35 34 33 34 33 33
31 32 32 33 33 34 35 36 36 37 37 38 39 39 38 38 38 37 36 36 35 35 35 34 33 32 32 34 35 35 32 31 31 29 29 31 31 29
31 32 33 33 34 34 35 36 36 37 37 37 38 39 39 38 38 37 37 35 35 34 34 34 32 31 31 31 31 31 30 26 26 27 27 27 28 29

GFSNE_700_spd_144.txt.gz
Wind_Speed
30 34 38 42 45 47 47 50 53 55 55 49 45 42 38 44 47 43 37 40 44 47 49 54 45 47 49 47 47 47 46 45 42 39 36 36 34 33
14 24 34 37 40 42 44 47 50 52 57 52 49 45 47 40 38 42 42 42 44 41 46 48 50 52 53 48 48 49 50 48 45 43 40 41 41 36
5 7 12 21 28 34 38 42 47 47 51 52 47 41 36 45 34 46 39 36 40 42 40 42 50 60 56 51 52 52 49 53 51 50 47 48 45 40
6 6 3 6 13 20 27 33 39 38 43 32 33 39 42 39 36 25 35 36 41 43 46 51 54 42 56 64 60 53 48 52 56 54 51 50 48 44
7 6 6 5 4 8 15 21 28 32 34 36 33 36 39 45 36 34 21 41 38 50 52 59 52 57 63 62 70 50 43 53 52 51 52 53 52 47
13 12 6 3 5 4 5 9 15 21 26 31 32 36 39 39 51 36 42 39 40 45 45 49 48 43 45 53 59 48 45 57 57 50 52 50 52 51
26 24 24 14 5 2 3 5 4 8 15 21 26 30 28 36 38 42 40 35 42 36 40 38 42 44 46 54 54 59 56 52 59 53 56 59 57 54
22 24 25 24 18 14 11 8 4 5 7 9 10 16 17 25 29 34 34 36 34 27 25 26 22 27 24 33 33 47 53 41 41 47 56 58 62 51
22 21 20 19 18 19 20 21 17 8 5 6 7 9 11 13 16 17 27 30 38 47 45 30 34 36 30 25 37 37 44 42 43 44 52 58 55 51
19 19 19 18 17 17 16 15 13 12 12 12 9 7 8 11 15 16 16 18 22 25 28 33 39 45 46 42 47 43 36 32 37 41 46 41 58 64
19 18 18 17 16 16 16 15 13 13 11 11 9 8 8 9 10 12 13 15 13 18 24 29 31 32 35 42 44 45 43 44 48 48 49 45 54 59
15 15 15 16 16 15 14 14 14 13 14 14 14 13 11 12 14 15 16 19 21 22 22 23 24 25 27 28 33 35 39 43 47 50 44 46 49 42
14 13 11 11 11 12 13 13 13 14 15 17 18 19 19 19 19 20 21 21 23 25 26 28 29 30 33 32 31 31 31 32 35 41 46 46 43 43
16 16 15 15 15 15 15 15 15 16 18 19 20 21 23 25 26 26 27 28 27 27 30 31 31 33 34 35 35 34 35 36 33 32 30 34 40 43
21 21 21 21 20 21 21 21 22 23 23 23 23 24 25 27 28 30 32 32 34 36 34 32 33 34 35 37 39 41 39 36 38 37 37 35 32 34
20 20 21 21 22 21 21 23 24 24 24 26 27 28 28 29 30 31 31 32 34 34 36 37 37 37 36 37 38 40 40 42 39 38 39 39 40 39
22 22 23 23 23 24 26 26 27 28 28 28 28 29 30 31 31 32 33 34 36 37 38 38 40 41 41 42 42 41 40 41 42 42 40 40 41 41
23 24 25 26 27 28 30 30 31 31 32 32 32 32 33 33 33 33 34 35 35 37 39 40 40 40 37 36 43 44 40 40 41 41 41 41 40 41
26 26 27 28 29 30 32 33 34 34 35 36 36 36 36 37 37 36 35 34 34 35 36 38 39 41 40 39 32 39 46 43 43 42 39 39 41 38
28 28 29 30 31 32 33 34 35 35 36 37 37 38 37 38 38 36 36 37 36 36 35 36 37 38 39 40 40 29 35 40 42 44 42 39 37 39
29 29 30 30 32 33 33 34 35 35 36 37 37 39 39 39 39 39 39 38 38 38 37 36 35 36 37 38 38 36 30 32 36 38 39 37 35 32
29 30 31 31 32 33 33 33 34 34 36 37 37 38 39 40 40 40 39 39 38 37 36 35 34 34 35 36 37 37 34 29 28 28 30 33 34 32
30 31 31 32 33 33 33 33 34 35 36 37 37 37 38 38 38 39 38 37 37 36 36 35 33 33 32 33 34 34 31 28 26 24 22 24 28 29